AAL10 KLAX-KJFK

Flight info

Callsign AAL10
Flight time N/A
Altitude 39000
Route DOTSS2 CLEEE PKE J134 DRK KA33Q KA36S KA39U KA42W GCK SPI WWODD RINTE KLYNE Q29 WWSHR JHW Q476 WLKES PUCKY1
Aircraft B772/H-SDE2E3FGHIJ5LORVWXY/LB1D1

Departure

Time 2026-05-01 14:11
Airport Los Angeles International Airport (KLAX)

Arrival

Time N/A
Airport John F. Kennedy International Airport (KJFK)
Time Latitude Longitude Altitude Speed Heading
2026-05-01 13:21 33.94262 -118.41120 126 ft 0 kts 83°
2026-05-01 13:57 33.94260 -118.41151 128 ft 4 kts 90°
2026-05-01 13:57 33.94262 -118.41184 126 ft 4 kts 104°
2026-05-01 13:58 33.94272 -118.41212 124 ft 4 kts 135°
2026-05-01 13:58 33.94286 -118.41223 127 ft 0 kts 175°
2026-05-01 14:02 33.94262 -118.41220 133 ft 9 kts 175°
2026-05-01 14:02 33.94177 -118.41209 127 ft 13 kts 173°
2026-05-01 14:02 33.94090 -118.41195 127 ft 13 kts 173°
2026-05-01 14:03 33.94003 -118.41182 127 ft 12 kts 173°
2026-05-01 14:03 33.93924 -118.41171 127 ft 8 kts 174°
2026-05-01 14:03 33.93870 -118.41164 126 ft 8 kts 174°
2026-05-01 14:03 33.93815 -118.41156 127 ft 8 kts 173°
2026-05-01 14:04 33.93773 -118.41122 128 ft 8 kts 114°
2026-05-01 14:04 33.93770 -118.41056 128 ft 8 kts 85°
2026-05-01 14:04 33.93776 -118.40990 130 ft 8 kts 83°
2026-05-01 14:04 33.93780 -118.40944 130 ft 8 kts 82°
2026-05-01 14:05 33.93790 -118.40855 129 ft 8 kts 82°
2026-05-01 14:05 33.93798 -118.40787 126 ft 8 kts 82°
2026-05-01 14:05 33.93806 -118.40720 129 ft 8 kts 82°
2026-05-01 14:05 33.93812 -118.40651 126 ft 8 kts 84°
2026-05-01 14:06 33.93821 -118.40562 127 ft 13 kts 83°
2026-05-01 14:06 33.93834 -118.40440 128 ft 16 kts 83°
2026-05-01 14:06 33.93848 -118.40302 130 ft 17 kts 83°
2026-05-01 14:06 33.93863 -118.40152 127 ft 18 kts 83°
2026-05-01 14:07 33.93878 -118.40000 130 ft 18 kts 83°
2026-05-01 14:07 33.93894 -118.39848 126 ft 18 kts 83°
2026-05-01 14:07 33.93909 -118.39698 126 ft 18 kts 83°
2026-05-01 14:08 33.93940 -118.39394 125 ft 18 kts 83°
2026-05-01 14:08 33.93956 -118.39242 126 ft 18 kts 83°
2026-05-01 14:08 33.93972 -118.39091 128 ft 18 kts 83°
2026-05-01 14:08 33.93987 -118.38938 128 ft 18 kts 83°
2026-05-01 14:09 33.94003 -118.38786 128 ft 18 kts 83°
2026-05-01 14:09 33.94018 -118.38635 127 ft 18 kts 83°
2026-05-01 14:09 33.94033 -118.38485 127 ft 16 kts 83°
2026-05-01 14:09 33.94044 -118.38380 128 ft 9 kts 83°
2026-05-01 14:10 33.94018 -118.38330 125 ft 8 kts 162°
2026-05-01 14:10 33.93983 -118.38323 124 ft 8 kts 171°
2026-05-01 14:10 33.93948 -118.38354 126 ft 7 kts 253°
2026-05-01 14:10 33.93946 -118.38381 127 ft 2 kts 265°
2026-05-01 14:11 33.93925 -118.38598 126 ft 60 kts 263°
2026-05-01 14:11 33.93709 -118.40701 266 ft 174 kts 263°
2026-05-01 14:11 33.93564 -118.42132 1074 ft 172 kts 262°
2026-05-01 14:12 33.93414 -118.43600 1778 ft 184 kts 262°
2026-05-01 14:12 33.93258 -118.45228 2074 ft 207 kts 263°
2026-05-01 14:12 33.92918 -118.46977 2234 ft 227 kts 238°
2026-05-01 14:12 33.91834 -118.48421 2503 ft 243 kts 221°
2026-05-01 14:13 33.90554 -118.49844 2911 ft 257 kts 227°
2026-05-01 14:13 33.89385 -118.51482 3528 ft 260 kts 232°
2026-05-01 14:13 33.88221 -118.53185 4130 ft 267 kts 232°
2026-05-01 14:13 33.87007 -118.54877 4834 ft 268 kts 224°
2026-05-01 14:14 33.85361 -118.55965 5409 ft 277 kts 193°
2026-05-01 14:14 33.83451 -118.55890 6144 ft 275 kts 168°
2026-05-01 14:14 33.81566 -118.55353 6695 ft 281 kts 167°
2026-05-01 14:14 33.79675 -118.54804 7326 ft 284 kts 167°
2026-05-01 14:15 33.77750 -118.54261 8014 ft 284 kts 167°
2026-05-01 14:15 33.75819 -118.53731 8713 ft 285 kts 167°
2026-05-01 14:15 33.73885 -118.53207 9395 ft 286 kts 167°
2026-05-01 14:15 33.71941 -118.52676 10033 ft 285 kts 165°
2026-05-01 14:16 33.70142 -118.51636 10311 ft 297 kts 138°
2026-05-01 14:16 33.68922 -118.49557 10464 ft 315 kts 112°
2026-05-01 14:16 33.68174 -118.47002 10601 ft 335 kts 108°
2026-05-01 14:16 33.67398 -118.44290 11002 ft 350 kts 108°
2026-05-01 14:17 33.66580 -118.41488 11587 ft 360 kts 108°
2026-05-01 14:17 33.65746 -118.38660 12371 ft 366 kts 108°
2026-05-01 14:17 33.64886 -118.35755 13251 ft 370 kts 107°
2026-05-01 14:17 33.64286 -118.32771 13816 ft 370 kts 91°
2026-05-01 14:18 33.64289 -118.29659 14376 ft 378 kts 85°
2026-05-01 14:18 33.64362 -118.26486 15166 ft 382 kts 86°
2026-05-01 14:18 33.64413 -118.23278 15990 ft 387 kts 86°
2026-05-01 14:18 33.64437 -118.21087 16533 ft 390 kts 86°
2026-05-01 14:19 33.64463 -118.16719 17075 ft 399 kts 87°
2026-05-01 14:19 33.64469 -118.13359 17788 ft 405 kts 87°
2026-05-01 14:19 33.64469 -118.09972 18637 ft 408 kts 87°
2026-05-01 14:19 33.64466 -118.06535 19376 ft 413 kts 87°
2026-05-01 14:20 33.64462 -118.03063 19993 ft 420 kts 87°
2026-05-01 14:20 33.64451 -117.95945 21324 ft 432 kts 87°
2026-05-01 14:20 33.64444 -117.92318 22004 ft 437 kts 87°
2026-05-01 14:21 33.64436 -117.88647 22670 ft 443 kts 87°
2026-05-01 14:21 33.64427 -117.84923 23331 ft 449 kts 88°
2026-05-01 14:21 33.64417 -117.81150 23917 ft 455 kts 87°
2026-05-01 14:22 33.65268 -117.73626 24943 ft 458 kts 72°
2026-05-01 14:22 33.66059 -117.69962 25479 ft 462 kts 71°
2026-05-01 14:22 33.66878 -117.66204 26020 ft 466 kts 72°
2026-05-01 14:22 33.67677 -117.62410 26543 ft 471 kts 72°
2026-05-01 14:23 33.68449 -117.58574 27024 ft 476 kts 72°
2026-05-01 14:23 33.69208 -117.54685 27485 ft 481 kts 73°
2026-05-01 14:23 33.69960 -117.50747 27904 ft 485 kts 73°
2026-05-01 14:23 33.70718 -117.46767 28351 ft 489 kts 73°
2026-05-01 14:24 33.71472 -117.42770 28815 ft 493 kts 73°
2026-05-01 14:24 33.72232 -117.38740 29250 ft 496 kts 73°
2026-05-01 14:24 33.72999 -117.34681 29659 ft 500 kts 72°
2026-05-01 14:24 33.73774 -117.30591 30037 ft 504 kts 72°
2026-05-01 14:25 33.74553 -117.26472 30366 ft 507 kts 73°
2026-05-01 14:25 33.75251 -117.22298 30682 ft 513 kts 79°
2026-05-01 14:25 33.75366 -117.17977 30947 ft 522 kts 90°
2026-05-01 14:25 33.75137 -117.13613 31225 ft 526 kts 91°
2026-05-01 14:26 33.74903 -117.09203 31544 ft 529 kts 90°
2026-05-01 14:26 33.74646 -117.00336 32090 ft 533 kts 88°
2026-05-01 14:26 33.74566 -116.95868 32350 ft 535 kts 89°
2026-05-01 14:27 33.74481 -116.91442 32595 ft 537 kts 89°
2026-05-01 14:27 33.74384 -116.86940 32884 ft 539 kts 89°
2026-05-01 14:27 33.74281 -116.82438 33152 ft 539 kts 89°
2026-05-01 14:28 33.74068 -116.73443 33851 ft 538 kts 89°
2026-05-01 14:28 33.73960 -116.68953 34173 ft 538 kts 89°
2026-05-01 14:28 33.73853 -116.64454 34424 ft 537 kts 89°
2026-05-01 14:28 33.73744 -116.59976 34658 ft 538 kts 89°
2026-05-01 14:29 33.73631 -116.55478 34957 ft 538 kts 90°
2026-05-01 14:29 33.73517 -116.50984 35201 ft 539 kts 90°
2026-05-01 14:30 33.73168 -116.37529 36064 ft 537 kts 90°
2026-05-01 14:30 33.73051 -116.33043 36318 ft 537 kts 90°
2026-05-01 14:30 33.72931 -116.28560 36598 ft 537 kts 90°
2026-05-01 14:31 33.72685 -116.19590 37050 ft 539 kts 90°
2026-05-01 14:31 33.72560 -116.15087 37308 ft 539 kts 90°
2026-05-01 14:31 33.72433 -116.10590 37607 ft 538 kts 90°
2026-05-01 14:31 33.72553 -116.06175 37872 ft 534 kts 78°
2026-05-01 14:32 33.73489 -116.01899 38049 ft 528 kts 67°
2026-05-01 14:32 33.74715 -115.97739 38194 ft 529 kts 66°
2026-05-01 14:32 33.75981 -115.93589 38450 ft 529 kts 65°
2026-05-01 14:32 33.77237 -115.89426 38620 ft 531 kts 66°
2026-05-01 14:33 33.78463 -115.85239 38785 ft 532 kts 66°
2026-05-01 14:33 33.80841 -115.76791 38879 ft 533 kts 68°
2026-05-01 14:34 33.83153 -115.68349 38885 ft 530 kts 68°
2026-05-01 14:34 33.85449 -115.59941 38893 ft 528 kts 67°
2026-05-01 14:35 33.87748 -115.51539 38878 ft 529 kts 67°
2026-05-01 14:35 33.90044 -115.43146 38877 ft 528 kts 67°
2026-05-01 14:36 33.92337 -115.34720 38877 ft 530 kts 67°
2026-05-01 14:36 33.94625 -115.26267 38879 ft 530 kts 67°
2026-05-01 14:37 33.96903 -115.17871 38876 ft 531 kts 67°
2026-05-01 14:37 33.99189 -115.09402 38864 ft 532 kts 67°
2026-05-01 14:38 34.01471 -115.00908 38872 ft 532 kts 67°
2026-05-01 14:38 34.03745 -114.92418 38854 ft 531 kts 67°
2026-05-01 14:39 34.06012 -114.83938 38854 ft 530 kts 67°
2026-05-01 14:39 34.08253 -114.75528 38855 ft 529 kts 67°
2026-05-01 14:40 34.10505 -114.67062 38860 ft 528 kts 67°
2026-05-01 14:40 34.12855 -114.58666 38845 ft 528 kts 66°
2026-05-01 14:41 34.15252 -114.50294 38853 ft 528 kts 66°
2026-05-01 14:41 34.17629 -114.41904 38835 ft 528 kts 66°
2026-05-01 14:42 34.19987 -114.33498 38840 ft 528 kts 66°
2026-05-01 14:42 34.22337 -114.25091 38838 ft 528 kts 66°
2026-05-01 14:43 34.24680 -114.16689 38838 ft 527 kts 66°
2026-05-01 14:43 34.27018 -114.08287 38845 ft 527 kts 66°
2026-05-01 14:44 34.29348 -113.99880 38850 ft 527 kts 66°
2026-05-01 14:44 34.32823 -113.87314 38845 ft 527 kts 66°
2026-05-01 14:45 34.36288 -113.74711 38860 ft 525 kts 66°
2026-05-01 14:46 34.38588 -113.66307 38855 ft 524 kts 66°
2026-05-01 14:46 34.42025 -113.53726 38860 ft 524 kts 66°
2026-05-01 14:47 34.44305 -113.45344 38852 ft 525 kts 66°
2026-05-01 14:48 34.47724 -113.32722 38859 ft 526 kts 66°
2026-05-01 14:48 34.51132 -113.20077 38868 ft 526 kts 66°
2026-05-01 14:49 34.55646 -113.03252 38880 ft 526 kts 66°
2026-05-01 14:50 34.60150 -112.86346 38893 ft 527 kts 66°
2026-05-01 14:51 34.63520 -112.73633 38898 ft 527 kts 66°
2026-05-01 14:52 34.66880 -112.60895 38902 ft 528 kts 66°
2026-05-01 14:53 34.70232 -112.48174 39084 ft 526 kts 65°
2026-05-01 14:53 34.72876 -112.39929 39080 ft 523 kts 61°
2026-05-01 14:54 34.75656 -112.31748 39057 ft 523 kts 61°
2026-05-01 14:54 34.78409 -112.23591 39007 ft 524 kts 62°
2026-05-01 14:55 34.81142 -112.15380 38963 ft 524 kts 62°
2026-05-01 14:55 34.83864 -112.07149 38996 ft 524 kts 62°
2026-05-01 14:56 34.86140 -112.00242 39027 ft 524 kts 62°
2026-05-01 14:56 34.88838 -111.92041 39054 ft 524 kts 62°
2026-05-01 14:57 34.91549 -111.83787 39078 ft 524 kts 62°
2026-05-01 14:57 34.95601 -111.71406 39065 ft 525 kts 62°
2026-05-01 14:58 34.98297 -111.63139 39088 ft 525 kts 62°
2026-05-01 14:58 35.00992 -111.54853 38936 ft 525 kts 63°
2026-05-01 14:59 35.03679 -111.46569 38981 ft 525 kts 63°
2026-05-01 14:59 35.06350 -111.38310 38971 ft 526 kts 63°
2026-05-01 15:00 35.10371 -111.25836 38960 ft 526 kts 63°
2026-05-01 15:01 35.13044 -111.17518 38963 ft 525 kts 63°
2026-05-01 15:01 35.15708 -111.09202 38972 ft 526 kts 63°
2026-05-01 15:02 35.18367 -111.00876 38966 ft 526 kts 63°
2026-05-01 15:02 35.21022 -110.92542 38962 ft 526 kts 63°
2026-05-01 15:03 35.23671 -110.84201 38960 ft 526 kts 63°
2026-05-01 15:03 35.26294 -110.75921 38967 ft 526 kts 64°
2026-05-01 15:04 35.28931 -110.67571 38969 ft 526 kts 64°
2026-05-01 15:04 35.31564 -110.59214 38960 ft 526 kts 64°
2026-05-01 15:05 35.34193 -110.50844 38954 ft 526 kts 64°
2026-05-01 15:05 35.36811 -110.42484 38963 ft 525 kts 64°
2026-05-01 15:06 35.39419 -110.34130 38958 ft 524 kts 64°
2026-05-01 15:06 35.42019 -110.25784 38958 ft 524 kts 64°
2026-05-01 15:07 35.44611 -110.17436 38945 ft 523 kts 65°
2026-05-01 15:07 35.47181 -110.09136 38952 ft 523 kts 65°
2026-05-01 15:08 35.49761 -110.00780 38951 ft 523 kts 65°
2026-05-01 15:08 35.52084 -109.92299 38962 ft 525 kts 69°
2026-05-01 15:09 35.54258 -109.83739 38958 ft 525 kts 69°
2026-05-01 15:09 35.56433 -109.75158 38961 ft 526 kts 69°
2026-05-01 15:10 35.58623 -109.66592 38954 ft 526 kts 69°
2026-05-01 15:10 35.61920 -109.53724 38962 ft 526 kts 69°
2026-05-01 15:11 35.65197 -109.40860 39012 ft 524 kts 70°
2026-05-01 15:12 35.67368 -109.32302 39045 ft 524 kts 70°
2026-05-01 15:12 35.70607 -109.19473 39112 ft 523 kts 70°